Starlink 11386

operational
NORAD ID: 62098 Int'l Des: 2024-220 Owner: SPXS Country: US Constellation: starlink
LEOCIRCULAR

Über Starlink 11386

Beschreibung wird geladen...

Live-Position

3D-Globus wird geladen...

Nächste Überflüge

Höhenverlauf

Altitude vs Time

uPlot chart will show altitude changes over time

Zweizeiliger Elementsatz

1 62098U 24220L 25258.62198662 .00195342 00000-0 14868-2 0 9990
2 62098 43.0016 17.9604 0001956 272.4903 87.5740 15.70896394 47426
Epoch: 15. Sept. 2025 • Age: 7 hours

Aktueller Status

Höhe 360.3 km
Geschwindigkeit 7.69 km/s
Subsatellitenpunkt -21.52°S, 103.01°W
Startdatum 25. Nov. 2024
Alter 0.8 years
Typ internet

Technische Details

Klassifizierung Payload
Masse 960.00 kg
Trockenmasse 910.00 kg
Gesamtmasse 960.00 kg
Länge 0.30 m
Durchmesser 4.10 m
Spannweite 29.00 m
Form Box + pan
Hersteller SPXS
Bus-Typ Starlink V2MD
Phasenstatus In Orbit
Besitzer/Staat SPXS/US

Große Konstellationen

Loading constellations...